Wind_Speed
2 2 1 3 1 2 4 4 2 9 8 3 10 1 3 4 1 3 20 19 20 17 16 15 12 11 11 12 12 13 14 13 13 12 12 12 12 12 12 12 11 11 11 12 14 14 13 14 13
1 3 3 2 3 5 4 3 8 4 11 14 11 6 3 2 2 15 22 22 19 18 17 16 13 11 12 13 12 13 13 13 13 13 13 13 12 12 12 11 10 11 12 13 14 15 15 13 16
6 1 2 2 2 4 5 4 11 13 14 10 5 3 2 1 8 22 19 24 20 18 16 15 13 12 13 11 12 12 12 12 12 13 13 13 12 11 12 12 10 11 12 13 14 13 14 14 13
1 2 3 5 8 4 4 12 11 13 12 7 11 8 5 3 17 15 23 21 19 18 15 14 14 12 13 12 13 12 13 13 12 13 14 13 12 11 12 12 11 11 12 12 13 12 11 11 11
2 2 3 4 6 4 9 13 4 4 7 10 8 8 10 1 9 19 21 20 18 17 15 14 13 12 12 13 13 13 13 12 12 14 12 12 12 14 13 11 11 10 10 10 10 10 9 9 9
2 2 4 5 6 7 5 6 4 6 8 11 15 13 5 7 14 21 20 19 17 16 15 14 13 12 12 12 12 14 13 13 12 13 13 13 15 15 14 13 12 11 10 10 9 8 8 8 6
3 2 3 6 8 5 5 6 4 7 9 8 14 9 6 11 16 19 18 18 17 15 15 15 15 13 13 13 13 13 13 13 12 14 15 15 15 14 14 13 12 12 12 11 10 9 7 5 4
3 2 3 2 6 4 9 6 10 5 7 13 10 6 10 17 17 17 17 17 16 15 15 15 15 13 13 14 14 13 13 12 12 15 16 15 15 15 14 13 11 10 10 10 8 6 6 3 3
1 3 3 2 4 6 13 5 6 4 16 5 1 10 19 23 19 18 18 17 16 15 15 16 15 15 16 16 15 14 14 13 14 16 17 16 16 15 14 13 10 9 7 7 6 5 3 2 1
3 2 2 1 2 5 16 12 11 8 10 4 8 17 25 23 21 20 19 19 19 17 16 16 16 17 19 17 17 17 16 15 17 18 18 17 16 15 14 12 10 9 8 5 4 2 3 3 1
1 2 0 2 1 9 15 10 6 12 6 9 21 26 27 24 19 16 16 15 16 17 17 18 17 18 19 18 19 20 17 17 18 18 18 17 16 15 13 11 10 8 5 4 2 2 2 0 2
1 1 2 3 5 6 10 10 6 13 2 9 24 27 26 25 21 18 15 15 17 17 17 19 19 19 18 19 20 18 18 18 19 19 18 17 16 14 12 10 8 6 3 3 3 2 2 3 2
2 2 2 1 3 5 9 8 3 10 3 15 24 24 23 21 20 18 16 15 16 16 17 19 20 19 19 20 20 19 19 19 20 20 19 17 15 13 11 10 9 8 7 6 7 3 1 1 1
4 6 2 2 2 3 7 5 5 7 11 19 24 23 21 21 20 18 18 18 15 15 17 17 18 19 20 20 20 21 20 20 18 17 16 15 14 13 11 10 10 8 10 10 10 7 5 5 4
2 4 7 9 5 3 8 5 8 10 17 21 23 21 21 21 20 21 20 20 17 15 17 18 18 20 21 22 23 21 18 17 17 16 14 13 13 12 10 10 11 12 8 5 7 7 8 9 10
1 2 2 5 2 3 9 7 7 15 22 21 23 22 21 21 23 22 21 20 19 16 17 19 21 21 22 24 23 18 16 16 17 15 12 11 14 14 9 7 7 7 7 6 8 7 8 7 6
4 4 2 2 5 2 4 7 5 16 21 21 22 24 24 23 24 25 25 23 21 19 18 22 22 23 24 25 21 16 13 15 17 15 13 14 11 12 10 7 10 8 9 9 8 7 7 8 9
2 2 2 2 2 3 6 13 5 17 21 25 24 23 24 24 27 26 26 25 24 22 20 22 24 25 27 26 23 21 19 18 19 18 15 13 13 12 11 10 9 12 14 14 13 11 9 10 11
6 4 4 7 7 5 12 14 12 17 20 22 25 26 26 28 27 24 26 27 27 27 27 26 27 27 30 31 29 26 25 22 21 21 18 16 14 13 13 12 13 15 17 18 16 15 12 14 15
2 2 3 7 5 5 8 16 10 17 26 28 29 27 28 27 25 25 26 30 31 31 32 31 30 30 31 31 30 28 25 24 23 21 19 19 18 16 17 19 21 21 20 21 16 14 16 16 15
2 1 1 4 6 2 9 9 5 9 19 23 26 26 27 27 28 27 30 33 34 36 36 36 34 32 32 33 32 29 27 26 25 23 22 23 22 21 22 24 24 23 21 23 23 17 13 14 13
4 4 5 5 4 4 6 6 5 1 8 18 25 28 30 30 28 26 30 33 34 36 36 38 35 35 33 35 35 32 30 28 26 23 20 18 19 19 21 20 17 19 27 26 23 13 11 11 12
2 3 4 3 2 7 3 4 5 1 5 10 20 27 31 32 29 30 31 34 32 31 33 35 39 37 35 35 35 33 32 29 28 25 25 22 21 19 19 22 27 28 28 24 18 13 14 13 15
4 2 4 3 1 2 2 3 8 3 2 4 5 19 24 22 25 28 31 34 32 30 33 32 37 37 37 34 33 33 32 31 28 26 25 24 17 12 12 19 20 23 23 18 10 12 14 14 13
4 1 3 2 1 2 0 4 11 4 7 7 9 8 16 19 20 19 24 29 30 30 30 32 32 36 35 33 30 29 31 31 28 25 21 18 11 16 22 23 23 21 11 10 13 11 12 12 12
5 3 3 5 5 6 2 5 4 2 5 5 4 4 5 9 14 13 12 16 21 29 27 29 33 29 31 30 30 28 27 22 15 13 10 13 12 5 5 6 23 14 9 9 11 10 7 7 6
6 6 1 3 1 4 2 5 10 2 3 2 2 3 3 5 6 6 13 11 12 21 26 28 36 35 34 32 28 26 26 20 10 13 12 4 2 5 12 23 15 8 8 7 7 8 6 6 5
3 5 3 2 4 7 4 5 6 12 12 8 6 8 6 5 7 8 11 12 13 15 19 26 33 33 35 35 28 30 28 19 17 18 7 7 12 19 21 14 13 10 9 8 7 6 6 6 6
4 4 2 0 3 6 8 6 2 10 11 13 10 9 7 6 4 5 6 8 13 17 19 22 25 28 30 32 29 28 26 19 18 11 14 18 20 18 12 14 12 11 10 10 10 10 10 9 9
2 2 2 3 5 3 4 8 3 8 13 12 12 8 7 7 6 3 1 2 3 4 10 17 17 18 19 24 27 29 27 22 21 15 16 21 18 12 15 14 12 11 12 12 11 9 9 9 9
Wind_Direction
228 229 134 72 113 100 77 72 88 124 136 105 128 278 159 49 1 88 149 154 159 157 154 153 160 155 152 153 146 141 141 141 142 142 142 134 130 126 126 126 122 125 123 121 116 106 89 96 101
155 114 51 74 79 105 81 71 133 143 138 127 95 114 63 90 90 138 146 154 157 159 155 154 158 159 151 146 142 142 141 141 142 141 137 132 131 129 128 128 128 127 121 120 121 109 102 106 96
108 27 62 74 95 85 111 119 109 101 141 137 115 80 95 88 142 142 152 151 154 157 155 151 156 152 149 147 143 143 142 146 140 140 139 135 133 139 141 135 131 124 124 126 129 116 106 99 98
132 29 59 83 88 68 118 142 127 117 124 150 133 89 72 162 131 146 149 149 154 155 154 151 155 153 151 150 151 149 149 142 144 146 144 141 147 137 138 136 134 135 133 136 135 124 109 97 88
27 50 71 84 69 79 123 143 141 131 123 138 155 122 121 119 158 153 154 153 156 154 152 153 158 157 156 154 153 149 150 149 141 144 146 153 144 139 133 145 136 130 129 132 134 129 118 106 98
65 43 87 89 93 102 114 148 109 116 125 124 125 120 110 141 154 157 159 156 156 159 155 157 163 164 159 157 158 152 150 152 150 157 156 148 147 146 147 136 128 125 123 124 124 116 109 102 89
94 81 92 103 116 143 147 139 118 119 134 125 136 114 127 151 157 161 160 157 161 163 156 161 163 166 165 164 156 154 153 154 155 150 147 150 150 145 139 131 129 124 122 120 118 119 116 100 91
97 121 112 80 165 132 143 127 138 106 101 132 129 152 157 164 156 162 164 165 167 167 167 170 168 163 161 161 162 165 161 168 167 154 152 155 154 148 142 135 135 132 131 128 124 123 112 101 101
63 65 81 93 187 120 151 141 154 105 141 142 82 153 154 155 157 162 168 171 176 178 176 176 174 170 168 173 171 170 171 174 170 162 160 160 159 155 149 146 149 146 141 139 136 135 139 150 297
63 92 84 91 241 160 164 160 155 142 157 141 114 143 156 160 165 168 175 179 183 185 183 182 183 179 174 177 178 177 179 180 175 170 165 164 163 162 160 159 162 164 162 171 140 111 130 123 84
86 89 346 173 150 151 158 161 154 155 198 193 164 157 162 167 174 178 182 186 187 186 187 186 185 183 181 183 183 183 184 181 175 171 169 169 171 171 174 176 180 190 189 177 230 222 229 320 133
8 263 265 76 112 120 157 154 154 171 298 188 169 165 166 173 179 182 184 181 181 187 191 191 185 183 187 188 187 188 184 178 174 173 175 175 176 180 186 193 202 211 216 261 261 302 239 137 117
268 349 252 316 92 75 149 166 147 196 123 153 162 167 176 182 184 185 175 175 177 179 187 194 191 186 187 185 184 183 177 174 175 176 178 180 183 188 198 206 215 224 254 295 269 277 221 216 313
343 336 319 49 227 141 164 161 176 185 153 156 170 176 183 188 192 190 190 182 184 184 184 190 191 192 190 189 184 176 173 175 179 180 183 185 191 196 208 219 229 240 275 271 243 259 280 285 295
352 115 104 39 105 139 172 199 227 179 172 169 177 184 189 196 199 202 197 195 186 184 183 185 184 191 191 186 177 176 177 183 184 182 188 203 212 211 223 233 239 245 245 256 240 250 264 280 280
68 68 72 2 10 106 196 257 219 181 177 182 185 187 196 202 207 208 207 206 200 196 190 183 185 190 187 182 180 186 194 197 196 200 213 203 208 213 226 245 210 209 225 246 262 269 275 275 294
12 111 55 160 28 134 220 271 212 184 188 186 192 194 196 205 213 215 213 209 207 202 200 188 187 190 189 185 188 194 204 208 204 212 212 207 208 209 218 222 225 239 243 271 280 269 278 289 294
62 143 98 260 278 257 251 263 232 196 200 196 197 202 202 207 217 217 216 216 213 209 206 201 193 190 191 193 199 204 207 206 205 212 216 219 223 225 229 238 243 249 261 272 275 273 281 282 284
145 173 195 230 227 248 248 253 246 203 211 213 206 206 210 210 215 220 224 222 222 217 213 209 204 199 199 201 206 213 219 218 220 219 224 231 237 240 247 254 259 260 266 271 270 266 271 283 289
155 306 280 287 280 270 310 269 252 208 212 215 214 212 215 218 219 222 225 228 227 225 221 217 214 208 208 209 213 220 223 226 229 231 232 235 236 246 253 258 260 259 261 259 263 266 268 277 285
169 230 233 297 338 223 312 274 254 236 227 223 227 226 227 223 219 219 226 234 234 233 228 223 221 215 215 217 222 228 232 234 233 236 245 242 243 260 259 267 267 259 261 266 272 259 259 261 273
35 6 338 314 318 309 359 309 289 241 230 224 230 226 228 227 227 227 226 232 237 240 235 229 227 224 222 223 228 233 236 235 236 241 248 250 255 264 269 271 257 271 270 271 268 255 262 265 269
48 44 20 348 308 314 8 278 283 254 273 244 239 233 233 233 231 232 231 236 242 242 241 229 224 227 225 227 231 236 238 242 247 248 250 251 257 268 277 285 276 273 264 276 254 251 262 260 273
106 354 38 53 46 265 302 261 287 316 245 292 306 236 232 231 233 238 242 242 241 247 243 229 220 228 230 231 234 239 239 244 249 249 250 255 254 254 276 284 266 265 255 249 247 257 265 268 255
198 282 301 254 238 322 31 233 269 246 282 295 292 278 237 230 228 234 236 237 235 238 234 231 223 232 233 234 233 236 243 246 252 252 245 241 260 296 290 303 284 296 256 248 269 272 269 260 258
176 213 267 294 309 328 158 243 311 40 282 279 283 263 211 207 215 217 223 233 229 234 243 236 225 231 239 237 232 234 234 235 231 230 221 247 288 317 287 273 291 284 266 268 258 245 237 202 190
143 212 62 259 199 263 297 266 280 281 330 267 247 230 168 198 203 217 232 230 231 232 238 231 233 227 228 228 225 234 233 233 249 39 336 196 240 267 268 270 256 244 244 220 187 181 187 191 179
258 137 216 188 265 285 282 281 290 323 357 349 271 228 197 189 212 222 228 228 231 233 235 234 234 236 229 223 222 229 234 239 247 304 188 148 209 249 266 243 226 222 209 192 197 194 206 200 207
154 193 100 199 282 298 300 285 291 300 315 313 300 243 205 189 194 242 256 254 245 241 238 230 228 228 229 225 224 224 221 228 254 232 192 203 238 260 238 214 206 208 207 207 212 213 218 216 218
280 131 193 270 294 237 285 283 241 274 301 298 300 214 199 182 186 162 78 34 344 313 247 230 220 215 210 208 206 203 201 246 230 222 245 249 244 209 207 213 212 208 204 206 208 206 206 208 209
Height
1516 1515 1515 1515 1520 1516 1527 1529 1524 1529 1532 1535 1538 1540 1541 1541 1540 1545 1546 1549 1552 1554 1556 1558 1560 1561 1562 1563 1564 1565 1566 1567 1568 1569 1570 1571 1573 1574 1575 1576 1577 1578 1579 1579 1580 1579 1579 1579 1580
1515 1515 1515 1514 1521 1526 1532 1525 1527 1527 1532 1535 1539 1541 1541 1541 1542 1544 1547 1549 1553 1555 1557 1559 1561 1562 1563 1564 1566 1567 1567 1568 1569 1571 1572 1573 1574 1576 1577 1578 1579 1580 1580 1581 1581 1581 1581 1582 1582
1515 1515 1516 1515 1521 1527 1530 1528 1528 1531 1533 1535 1539 1541 1542 1543 1542 1545 1547 1550 1553 1556 1558 1560 1561 1562 1564 1565 1567 1568 1569 1570 1571 1572 1574 1574 1575 1577 1578 1579 1580 1581 1581 1582 1583 1583 1583 1583 1584
1516 1517 1518 1519 1525 1524 1524 1527 1529 1532 1536 1537 1538 1541 1543 1543 1545 1547 1549 1552 1554 1556 1558 1561 1562 1564 1565 1566 1568 1569 1570 1572 1573 1574 1575 1576 1577 1578 1579 1580 1581 1582 1582 1583 1584 1584 1584 1585 1585
1516 1516 1519 1524 1525 1524 1525 1528 1530 1531 1534 1537 1538 1542 1545 1546 1546 1548 1550 1552 1556 1558 1560 1562 1564 1565 1567 1568 1569 1571 1572 1573 1574 1575 1577 1578 1579 1580 1581 1581 1582 1583 1584 1585 1585 1586 1586 1587 1587
1517 1518 1524 1531 1526 1526 1529 1530 1530 1532 1534 1537 1539 1541 1546 1546 1548 1549 1551 1553 1556 1558 1561 1563 1565 1566 1568 1570 1571 1572 1574 1575 1576 1577 1578 1580 1581 1581 1582 1583 1584 1585 1586 1587 1588 1588 1588 1588 1589
1517 1520 1528 1527 1527 1527 1527 1530 1531 1533 1534 1537 1538 1540 1547 1548 1549 1551 1553 1555 1557 1558 1561 1563 1564 1566 1569 1571 1572 1574 1576 1577 1578 1579 1580 1581 1582 1583 1584 1585 1586 1587 1588 1589 1590 1590 1590 1590 1590
1518 1520 1525 1524 1527 1526 1528 1530 1532 1533 1536 1538 1539 1541 1546 1547 1549 1551 1554 1556 1557 1559 1561 1562 1564 1567 1569 1571 1573 1575 1577 1578 1580 1580 1581 1583 1584 1584 1585 1587 1588 1589 1590 1591 1591 1592 1591 1591 1591
1519 1521 1526 1525 1524 1525 1529 1530 1533 1534 1536 1538 1539 1540 1543 1545 1549 1552 1553 1555 1557 1559 1560 1562 1564 1566 1568 1570 1573 1575 1576 1578 1580 1581 1583 1584 1586 1587 1588 1588 1589 1590 1591 1591 1592 1592 1592 1592 1591
1519 1522 1523 1521 1520 1521 1527 1528 1531 1534 1536 1538 1538 1540 1543 1546 1548 1551 1552 1554 1556 1558 1560 1561 1563 1565 1567 1570 1572 1575 1576 1578 1580 1582 1583 1585 1587 1588 1589 1589 1590 1591 1591 1592 1592 1592 1592 1592 1592
1520 1522 1521 1521 1520 1522 1524 1529 1531 1532 1534 1534 1536 1538 1541 1545 1549 1551 1553 1554 1556 1558 1559 1560 1562 1565 1567 1568 1570 1573 1575 1578 1580 1582 1585 1587 1588 1589 1590 1591 1591 1591 1593 1592 1592 1593 1593 1593 1593
1521 1521 1521 1521 1521 1522 1525 1528 1530 1531 1531 1532 1536 1539 1541 1543 1547 1550 1553 1553 1555 1556 1558 1560 1561 1564 1566 1568 1570 1572 1575 1577 1579 1582 1584 1587 1589 1591 1591 1592 1592 1593 1593 1593 1593 1593 1593 1593 1593
1521 1520 1521 1521 1521 1523 1526 1527 1529 1532 1531 1533 1537 1540 1543 1546 1547 1549 1551 1554 1555 1555 1557 1559 1561 1563 1566 1568 1570 1572 1575 1577 1579 1581 1584 1586 1589 1591 1592 1592 1593 1593 1594 1594 1593 1593 1593 1593 1593
1521 1520 1519 1520 1521 1523 1525 1527 1529 1532 1532 1534 1537 1539 1543 1546 1548 1550 1550 1552 1554 1555 1556 1559 1561 1564 1565 1568 1570 1573 1575 1578 1580 1582 1585 1586 1588 1590 1591 1591 1592 1593 1594 1594 1593 1593 1593 1593 1593
1523 1522 1519 1522 1522 1524 1525 1528 1527 1529 1532 1533 1536 1540 1542 1544 1546 1547 1549 1551 1552 1554 1556 1557 1560 1563 1565 1567 1570 1574 1576 1578 1580 1583 1585 1587 1588 1590 1591 1591 1591 1591 1592 1593 1593 1593 1593 1593 1592
1523 1524 1529 1524 1523 1524 1524 1529 1523 1526 1529 1532 1535 1537 1541 1543 1543 1545 1548 1551 1553 1555 1555 1557 1559 1561 1565 1568 1571 1574 1576 1578 1580 1583 1585 1586 1588 1589 1591 1591 1591 1591 1591 1591 1592 1592 1592 1592 1591
1527 1535 1533 1528 1524 1523 1525 1523 1521 1525 1527 1529 1533 1534 1536 1540 1541 1543 1545 1548 1551 1554 1555 1556 1559 1562 1565 1568 1571 1574 1577 1578 1580 1582 1583 1585 1586 1588 1588 1589 1590 1590 1591 1591 1590 1590 1590 1589 1589
1535 1534 1533 1531 1525 1522 1522 1519 1519 1522 1525 1525 1528 1531 1533 1535 1536 1539 1543 1546 1549 1552 1555 1557 1558 1560 1563 1568 1570 1571 1573 1576 1578 1580 1582 1584 1585 1586 1587 1588 1588 1589 1589 1590 1589 1589 1589 1588 1588
1528 1533 1530 1523 1519 1521 1516 1514 1512 1518 1522 1524 1524 1526 1527 1528 1531 1536 1539 1543 1546 1549 1551 1553 1556 1559 1561 1562 1565 1569 1571 1573 1575 1577 1580 1582 1584 1585 1586 1586 1587 1587 1588 1588 1588 1587 1586 1586 1585
1529 1531 1527 1521 1520 1523 1517 1512 1509 1512 1513 1516 1518 1521 1522 1525 1529 1531 1534 1537 1540 1544 1547 1550 1553 1556 1559 1562 1564 1566 1570 1572 1574 1576 1577 1579 1581 1582 1583 1584 1584 1584 1583 1582 1583 1584 1584 1583 1582
1527 1527 1529 1528 1521 1522 1522 1511 1507 1507 1510 1513 1514 1517 1520 1521 1523 1525 1528 1530 1535 1538 1541 1545 1548 1552 1556 1559 1562 1564 1567 1568 1572 1574 1575 1576 1579 1580 1580 1580 1580 1580 1580 1578 1575 1579 1581 1580 1578
1530 1528 1526 1526 1526 1531 1526 1529 1507 1505 1506 1508 1510 1512 1513 1515 1518 1521 1523 1524 1527 1529 1536 1540 1545 1548 1551 1555 1558 1560 1563 1565 1568 1571 1572 1573 1575 1576 1575 1575 1575 1576 1576 1573 1575 1576 1577 1576 1576
1532 1528 1528 1526 1529 1531 1528 1533 1503 1507 1503 1504 1503 1505 1507 1509 1513 1515 1517 1519 1521 1525 1527 1533 1539 1544 1548 1550 1555 1558 1561 1563 1565 1569 1569 1570 1571 1572 1573 1571 1570 1571 1572 1568 1567 1574 1573 1574 1573
1527 1528 1531 1531 1534 1544 1536 1535 1505 1499 1501 1499 1499 1499 1502 1505 1507 1509 1512 1514 1518 1522 1522 1527 1533 1538 1544 1547 1551 1555 1558 1560 1563 1564 1564 1566 1565 1566 1568 1570 1568 1568 1568 1568 1570 1570 1569 1569 1569
1528 1533 1539 1542 1544 1536 1537 1537 1504 1498 1499 1500 1498 1497 1498 1500 1503 1505 1507 1508 1512 1516 1519 1524 1531 1535 1539 1544 1547 1551 1554 1556 1558 1559 1559 1559 1559 1559 1561 1563 1564 1563 1563 1565 1566 1565 1566 1566 1565
1529 1529 1535 1553 1539 1529 1536 1527 1495 1498 1499 1499 1498 1495 1495 1496 1499 1502 1503 1505 1507 1510 1514 1519 1525 1530 1534 1539 1543 1546 1548 1550 1552 1556 1555 1555 1554 1555 1554 1558 1558 1561 1561 1561 1561 1562 1561 1564 1564
1530 1532 1523 1530 1542 1538 1518 1511 1494 1494 1494 1498 1498 1499 1498 1499 1500 1502 1502 1504 1506 1508 1510 1516 1518 1524 1529 1532 1536 1539 1543 1545 1549 1546 1537 1548 1549 1553 1554 1559 1561 1561 1560 1559 1558 1560 1561 1563 1563
1517 1520 1528 1531 1545 1543 1521 1523 1504 1490 1493 1496 1497 1496 1497 1499 1499 1500 1502 1504 1505 1505 1506 1509 1512 1516 1520 1524 1530 1532 1536 1539 1540 1538 1547 1539 1543 1552 1555 1557 1559 1558 1556 1557 1558 1558 1561 1562 1562
1521 1520 1528 1527 1530 1532 1534 1516 1497 1497 1494 1493 1494 1496 1498 1499 1500 1500 1500 1500 1501 1501 1501 1503 1506 1509 1514 1522 1527 1528 1528 1533 1534 1537 1538 1534 1541 1546 1552 1555 1555 1555 1554 1555 1557 1559 1560 1561 1561
1513 1514 1514 1524 1529 1531 1531 1519 1497 1495 1493 1493 1490 1493 1497 1496 1496 1498 1499 1499 1499 1498 1498 1500 1503 1508 1514 1515 1520 1522 1520 1524 1529 1532 1534 1536 1539 1543 1549 1552 1552 1551 1552 1555 1556 1558 1559 1561 1562